Miscellaneous Local Product
Issued by NWS Hastings, NE

Home | Current Version | Previous Version | Text Only | Print | Product List | Glossary Off
Versions: 1 2 3 4 5 6 7 8 9 10 11 12 13 14 15 16 17 18 19 20 21 22 23 24 25 26 27 28 29 30 31 32 33 34 35 36 37 38 39 40 41 42 43 44 45 46 47 48 49 50

000
AXUS43 KGID 231502
MISGRI

GID CWA HOURLY WEATHER ROUNDUP
NATIONAL WEATHER SERVICE HASTINGS NE
1000 AM CDT THU APR 23 2015

NOTE: "FAIR" INDICATES FEW OR NO CLOUDS BELOW 12,000 FEET WITH NO
SIGNIFICANT WEATHER AND/OR OBSTRUCTIONS TO VISIBILITY.

...SOUTH CENTRAL NEBRASKA...

CITY           SKY/WX    TMP DP  RH WIND       PRES   REMARKS
GRAND ISLAND   SUNNY     52  28  39 S14       30.04F
HASTINGS       SUNNY     51  30  44 SE12      30.02F
KEARNEY        SUNNY     52  30  43 S17       30.01S
ORD            CLOUDY    49  29  46 S15       29.99F
YORK           SUNNY     54  27  35 S13       30.05F
AURORA         SUNNY     51  28  41 S12       30.05S
LEXINGTON      CLOUDY    50  36  57 S16       29.97S
HOLDREGE       SUNNY     50  31  47 S20       29.99S
HEBRON         SUNNY     54  23  29 SE13      30.05F

...NEBRASKA PANHANDLE...

CITY           SKY/WX    TMP DP  RH WIND       PRES   REMARKS
CHADRON        SUNNY     45  33  63 CALM      29.83F
ALLIANCE       SUNNY     51  42  71 VRB6      29.83S
SCOTTSBLUFF    SUNNY     49  41  74 SE6       29.83F
SIDNEY         PTSUNNY   54  45  71 SE9       29.86R

...WESTERN AND NORTH CENTRAL NEBRASKA...

CITY           SKY/WX    TMP DP  RH WIND       PRES   REMARKS
VALENTINE      SUNNY     51  32  48 S15       29.90F
AINSWORTH      CLOUDY    49  32  51 S20G26    29.92F
ONEILL         CLOUDY    47  29  49 SE10      30.01F
BROKEN BOW     MOSUNNY   51  32  48 S16       29.96F
IMPERIAL       CLOUDY    50  43  77 S18G29    29.91S
NORTH PLATTE   CLOUDY    48  37  65 S9        29.94S
MCCOOK         CLOUDY    53  39  59 S12       29.95F

...EASTERN NEBRASKA...

CITY           SKY/WX    TMP DP  RH WIND       PRES   REMARKS
NORFOLK        SUNNY     52  26  36 S13       30.05F
SO SIOUX CITY  SUNNY     50  22  33 SE14      30.11S
TEKAMAH        MOSUNNY   52  24  33 SE15      30.12S
COLUMBUS       SUNNY     50  30  46 SE6       30.08F
ALBION         PTSUNNY   49  29  47 SE9       30.04F
OMAHA EPPLEY   MOSUNNY   52  24  33 SE9       30.12S
OFFUTT AFB     MOSUNNY   50  27  39 E7        30.11S
MILLARD        SUNNY     50  29  44 SE7       30.11S
LINCOLN        SUNNY     51  31  46 SE5       30.10F
NEBRASKA CITY  SUNNY     51  21  31 E5        30.11S
BEATRICE       SUNNY     52  30  42 SE8       30.08F
FALLS CITY     SUNNY     53  31  42 E6        30.10S

...NORTHERN KANSAS...

CITY           SKY/WX    TMP DP  RH WIND       PRES   REMARKS
GOODLAND       CLOUDY    47  45  93 S21       29.92S FOG
HILL CITY      CLOUDY    52  38  58 S13       29.99S
NORTON         CLOUDY    48  34  57 SE12      29.97S
SMITH CENTER   SUNNY     54  28  37 SE18      30.03S
BELOIT         SUNNY     55  28  35 SE14G20   30.03S
HAYS           SUNNY     54  34  47 SE16      30.00F
RUSSELL        PTSUNNY   56  31  38 SE17      30.00S
CONCORDIA        N/A    N/A N/A N/A MISG      30.04S
SALINA         CLOUDY    57  30  35 SE18      30.04F
TOPEKA         MOSUNNY   58  28  32 E10       30.10S



USA.gov is the U.S. government's official web portal to all federal, state and local government web resources and services.